Wind_Speed
37 38 39 41 42 43 44 46 47 48 49 50 50 50 51 51 52 53 53 54 54 53 52 51 52 52 52 52 52 52 52 52 51 51 51 52 52 51 51 51 50 50 49
35 36 38 39 40 42 43 44 45 46 47 48 49 50 51 51 52 52 53 53 53 52 53 53 53 53 52 52 52 51 51 52 52 51 50 50 51 50 50 50 50 50 49
35 36 37 38 39 40 41 42 44 45 46 47 48 48 49 50 51 51 51 52 51 51 52 53 53 52 51 51 51 51 51 51 50 50 49 50 50 50 49 50 50 49 49
34 35 36 36 38 38 39 40 42 44 45 46 47 47 48 49 50 49 49 49 49 49 50 50 51 51 50 50 50 50 50 50 49 49 49 49 49 49 49 48 48 48 48
34 34 35 36 37 38 38 39 40 42 43 44 45 45 46 46 46 46 46 48 48 48 48 48 49 49 48 49 49 50 49 49 49 48 48 49 48 48 48 48 47 47 47
34 34 34 34 35 35 36 37 38 39 40 41 41 43 43 42 42 42 43 44 45 46 46 46 46 46 47 47 48 48 49 49 48 48 48 48 47 47 47 47 46 46 45
32 32 33 33 33 34 34 35 35 36 37 38 38 39 39 39 40 40 40 41 42 43 43 43 43 43 44 44 45 46 47 47 47 47 46 46 46 46 46 46 46 45 44
31 31 31 32 31 31 31 31 31 31 32 34 34 34 35 36 37 37 37 37 37 37 39 40 40 41 41 42 42 43 43 44 44 43 43 43 43 43 44 44 43 43 42
28 28 29 29 29 28 28 27 28 28 29 30 31 31 32 33 34 35 34 34 34 35 35 37 38 39 38 39 39 40 40 40 39 39 39 39 39 40 40 41 40 40 38
27 27 27 27 26 25 25 26 26 26 26 28 29 29 30 31 32 33 33 33 33 33 33 34 35 35 35 35 36 36 36 36 36 36 36 36 36 37 37 37 37 37 36
27 27 26 25 24 24 24 25 24 24 24 25 26 27 28 28 29 30 31 32 32 32 31 31 31 32 34 33 33 33 34 34 33 33 33 33 33 34 34 34 34 34 34
26 26 25 24 24 24 24 24 24 23 23 23 24 25 26 26 27 28 28 29 30 30 30 30 29 29 29 31 30 31 31 30 30 30 31 30 30 31 31 31 31 31 31
25 25 25 25 24 24 24 24 23 23 23 22 22 23 23 23 24 25 26 26 27 28 28 28 28 28 27 27 27 28 28 28 29 29 29 29 29 29 29 28 28 28 28
24 24 24 24 24 24 23 22 21 21 21 21 21 21 21 22 22 23 24 24 25 25 25 26 26 26 26 26 26 26 26 27 27 27 27 27 27 27 26 26 25 25 25
24 24 24 23 23 23 22 21 21 21 20 20 20 21 21 21 21 21 22 23 23 23 23 23 24 24 24 24 24 25 26 26 25 25 25 25 25 24 23 22 22 22 22
23 23 23 23 22 21 20 20 20 20 20 19 20 20 20 20 20 20 20 21 21 21 21 21 21 21 21 21 21 22 23 23 23 23 23 22 21 20 20 19 19 19 19
22 22 22 22 21 20 19 19 19 19 19 19 19 19 19 19 20 20 20 19 19 19 19 19 19 19 18 18 19 19 20 20 20 19 19 18 17 17 17 17 17 17 17
21 21 20 20 19 19 19 19 19 18 18 19 19 19 19 19 19 19 19 19 18 18 17 17 16 15 15 16 16 17 17 17 16 16 16 15 15 15 14 14 15 15 15
20 19 19 18 18 17 18 18 18 18 18 19 19 19 19 18 18 17 17 17 17 16 16 15 15 15 15 15 15 15 15 15 14 14 13 13 13 13 13 13 13 14 14
18 18 17 17 17 17 17 16 17 17 18 18 18 17 17 17 16 16 16 15 15 14 14 14 14 14 14 15 15 14 14 14 13 13 12 12 12 11 11 11 12 12 11
17 17 17 17 17 17 17 17 17 17 17 16 16 15 15 15 15 14 13 13 13 13 13 13 13 14 14 14 14 14 13 13 12 12 12 11 11 11 11 11 11 10 10
16 17 17 16 16 17 17 17 16 16 15 15 14 14 14 14 13 13 13 13 13 13 13 13 13 14 14 14 14 14 13 12 12 12 12 11 11 11 11 11 11 10 10
16 16 16 15 15 15 15 15 15 14 14 13 13 13 13 12 12 12 12 12 12 12 12 13 13 13 13 13 13 13 12 12 12 11 11 11 11 11 11 11 10 10 10
15 15 15 14 14 14 14 14 13 13 13 12 12 12 12 12 12 12 12 12 12 12 12 13 13 13 13 12 12 12 12 12 12 12 12 12 12 11 11 11 11 11 11
14 14 14 13 13 14 14 13 13 13 12 12 12 12 12 12 12 12 12 11 12 12 12 12 12 12 12 12 11 11 11 11 11 12 12 12 12 12 11 11 11 11 11
13 13 13 13 13 13 13 13 12 12 12 13 13 13 13 12 12 12 11 12 12 12 12 12 12 11 11 10 10 10 10 10 10 11 11 11 11 11 11 11 11 11 10
Wind_Direction
273 272 271 270 269 267 266 265 263 261 261 261 261 261 260 260 261 262 262 263 264 264 265 265 266 267 269 270 270 271 272 273 273 272 273 273 273 275 276 276 277 277 278
274 274 274 273 271 269 268 266 265 264 262 262 262 262 261 261 262 262 262 262 263 264 264 265 267 268 269 269 270 271 272 272 273 272 272 273 274 276 277 276 277 278 279
277 277 276 275 273 273 271 268 267 266 264 264 263 263 263 263 263 262 262 263 264 265 265 267 268 268 269 270 271 271 272 272 272 273 273 273 275 277 277 277 277 279 280
279 278 278 277 275 274 273 270 268 267 266 265 264 264 264 263 264 264 264 265 266 266 267 268 268 268 268 270 271 272 273 273 273 273 273 274 275 277 277 277 278 280 280
280 280 280 280 278 276 275 272 270 268 267 267 265 266 266 266 266 266 265 265 266 267 268 268 267 268 268 270 271 272 272 273 274 274 275 275 277 278 277 278 279 279 279
283 283 282 282 280 278 277 275 272 270 269 268 267 266 267 267 267 267 267 267 267 268 268 268 268 269 269 270 271 272 273 273 274 275 275 276 277 277 276 277 278 278 279
284 284 283 283 282 280 279 277 274 272 270 269 268 268 267 268 268 267 268 268 269 268 267 267 267 269 269 270 272 273 273 273 273 274 275 275 276 276 276 276 277 278 278
286 286 286 285 285 284 282 280 278 276 273 271 270 269 268 268 268 269 268 269 269 269 268 268 268 268 270 271 272 273 273 273 273 274 275 275 275 274 274 275 276 277 277
289 288 288 288 286 286 285 284 282 280 277 274 272 271 269 269 269 269 270 270 270 270 271 270 270 269 270 271 272 273 274 274 274 275 275 276 276 275 275 275 276 276 276
289 289 290 289 288 287 287 287 285 283 279 275 274 273 271 271 271 271 271 271 271 271 272 273 272 270 270 271 273 273 273 274 274 274 275 275 276 276 276 276 276 276 276
289 289 288 289 289 290 290 289 288 286 282 279 277 275 273 272 272 273 273 273 272 271 271 272 273 271 270 271 273 273 273 273 274 274 275 276 276 277 277 277 277 276 277
290 289 288 288 289 291 291 290 289 285 284 282 280 278 277 275 274 274 274 275 273 271 271 271 273 274 274 272 272 272 272 274 274 275 277 277 277 277 277 277 277 277 278
290 290 289 287 288 289 290 290 288 285 284 285 283 281 279 278 278 277 276 276 275 273 272 273 274 275 275 275 273 273 273 274 275 276 277 278 278 277 276 276 277 278 280
290 290 289 288 288 289 290 289 287 286 286 286 285 282 281 281 280 279 278 276 276 275 275 275 275 275 276 276 274 274 275 276 277 277 277 277 277 276 276 276 277 277 279
290 291 290 290 290 288 287 287 287 285 286 287 286 284 284 282 281 281 279 278 278 278 278 278 276 274 275 275 275 276 276 278 278 278 277 277 276 275 275 275 276 277 279
290 290 290 291 290 288 286 286 286 286 285 285 287 286 285 282 280 280 280 279 279 280 281 281 279 277 276 275 277 277 278 279 279 279 278 276 274 274 274 275 277 278 281
290 290 291 290 289 286 285 285 286 287 287 289 290 289 288 285 284 281 280 279 279 279 281 281 280 281 279 278 279 279 282 282 281 279 276 274 272 271 272 274 275 279 282
289 290 291 290 288 286 285 285 286 287 288 289 290 290 289 287 285 283 281 281 280 279 279 279 278 280 280 280 282 285 286 285 283 280 276 273 271 272 274 275 276 280 281
289 290 290 289 288 288 287 286 286 287 288 290 290 290 289 288 286 285 283 282 281 278 277 277 276 277 279 282 285 286 286 284 283 279 275 272 272 274 276 278 280 282 282
288 288 289 289 288 290 290 290 290 290 291 291 290 289 288 287 287 287 284 282 280 277 276 276 276 278 280 283 285 285 284 282 279 277 275 271 270 273 276 278 281 283 283
288 289 289 289 288 289 290 291 292 293 293 294 294 292 291 289 287 285 282 281 281 279 277 275 276 279 280 282 283 283 282 279 277 276 273 270 269 271 275 277 279 281 285
292 292 291 289 288 288 289 290 290 292 294 295 295 294 293 292 288 285 283 282 280 279 277 276 277 279 280 281 282 281 280 277 275 273 270 268 268 270 272 275 278 281 284
296 294 292 289 288 288 289 289 289 290 291 292 293 295 295 294 292 289 288 285 280 278 278 278 280 282 282 282 282 281 279 276 273 271 269 267 268 270 271 273 276 279 284
298 297 294 290 288 288 289 289 288 289 290 290 291 293 295 295 294 292 289 284 280 280 282 283 284 283 281 281 281 279 277 274 273 272 271 268 268 270 270 272 274 276 279
296 296 294 291 288 288 288 287 285 285 287 288 290 292 293 292 292 291 289 285 283 284 284 283 282 283 283 282 280 279 276 274 273 273 271 268 266 267 269 271 272 274 275
295 295 294 293 290 288 288 287 284 284 286 288 290 291 290 290 290 290 290 289 286 286 284 283 282 282 281 279 279 278 275 274 275 274 272 269 266 266 268 269 269 272 273
Height
5604 5604 5603 5603 5602 5602 5602 5602 5604 5605 5607 5609 5611 5612 5614 5616 5617 5619 5620 5621 5622 5623 5623 5624 5625 5625 5626 5626 5626 5626 5626 5625 5626 5627 5626 5624 5623 5622 5621 5619 5618 5617 5616
5594 5593 5593 5592 5591 5590 5590 5590 5591 5593 5594 5596 5597 5599 5601 5602 5603 5605 5606 5607 5608 5609 5609 5610 5611 5611 5612 5612 5612 5612 5611 5611 5611 5612 5612 5610 5609 5608 5607 5606 5605 5603 5602
5585 5583 5582 5581 5580 5579 5578 5578 5579 5580 5581 5582 5584 5585 5587 5588 5589 5591 5592 5593 5594 5595 5595 5596 5597 5598 5598 5598 5598 5598 5597 5597 5597 5597 5598 5597 5596 5594 5593 5592 5591 5590 5588
5575 5573 5571 5570 5569 5568 5567 5566 5566 5567 5568 5570 5571 5572 5573 5575 5576 5577 5579 5580 5581 5582 5582 5583 5583 5584 5585 5585 5585 5584 5584 5583 5583 5583 5584 5583 5582 5581 5579 5579 5578 5577 5575
5565 5563 5562 5560 5558 5557 5555 5555 5555 5555 5556 5556 5558 5559 5560 5561 5562 5564 5566 5567 5568 5568 5569 5569 5570 5570 5571 5571 5571 5571 5571 5570 5570 5570 5570 5570 5569 5567 5566 5565 5565 5564 5563
5556 5554 5552 5550 5548 5546 5545 5544 5543 5543 5544 5544 5546 5547 5548 5549 5550 5551 5552 5554 5555 5556 5556 5556 5557 5557 5558 5558 5558 5558 5557 5557 5557 5557 5557 5556 5555 5554 5553 5552 5551 5551 5551
5547 5545 5543 5541 5539 5537 5535 5534 5533 5533 5533 5534 5535 5536 5537 5538 5538 5539 5540 5541 5542 5543 5544 5544 5545 5545 5545 5545 5545 5544 5544 5544 5544 5544 5543 5543 5542 5541 5540 5540 5538 5538 5537
5538 5537 5535 5532 5530 5528 5526 5525 5524 5524 5524 5524 5525 5525 5527 5528 5528 5529 5530 5531 5531 5532 5532 5532 5533 5533 5533 5533 5533 5532 5532 5531 5531 5531 5531 5530 5529 5528 5527 5527 5526 5525 5525
5531 5529 5527 5525 5523 5521 5519 5518 5516 5516 5515 5515 5516 5516 5517 5518 5518 5519 5520 5521 5521 5521 5521 5521 5521 5522 5522 5522 5522 5521 5521 5520 5519 5519 5518 5518 5517 5516 5515 5514 5514 5513 5513
5524 5522 5520 5518 5516 5514 5513 5511 5510 5509 5508 5508 5508 5508 5509 5509 5510 5510 5510 5511 5512 5512 5512 5512 5511 5511 5511 5511 5511 5510 5510 5509 5509 5508 5508 5507 5506 5505 5504 5503 5502 5502 5502
5517 5515 5513 5511 5510 5508 5506 5505 5504 5502 5502 5501 5501 5501 5501 5501 5501 5501 5501 5502 5502 5502 5502 5502 5502 5501 5501 5501 5500 5500 5500 5499 5499 5498 5498 5497 5496 5495 5494 5493 5492 5492 5491
5511 5509 5507 5505 5504 5502 5501 5499 5498 5496 5496 5495 5494 5494 5494 5493 5493 5493 5493 5493 5493 5493 5494 5493 5493 5492 5492 5491 5491 5491 5490 5490 5489 5489 5489 5488 5487 5486 5485 5484 5483 5482 5482
5504 5502 5501 5499 5498 5496 5495 5493 5492 5491 5490 5489 5488 5488 5487 5487 5486 5486 5486 5485 5485 5485 5485 5485 5484 5484 5484 5483 5483 5482 5482 5481 5481 5480 5480 5479 5478 5477 5476 5475 5474 5474 5473
5498 5496 5495 5493 5492 5490 5489 5487 5486 5485 5484 5483 5482 5482 5481 5480 5480 5479 5479 5478 5478 5478 5477 5477 5477 5476 5476 5476 5475 5475 5474 5473 5473 5472 5471 5470 5470 5469 5468 5467 5467 5466 5466
5492 5490 5489 5487 5486 5484 5483 5482 5480 5479 5479 5478 5477 5476 5475 5475 5474 5473 5472 5472 5472 5471 5471 5470 5469 5469 5469 5468 5468 5467 5467 5466 5465 5464 5463 5463 5462 5462 5461 5461 5460 5460 5460
5486 5484 5483 5481 5480 5479 5477 5476 5475 5474 5473 5472 5471 5470 5469 5468 5467 5467 5466 5465 5465 5465 5464 5464 5463 5463 5462 5461 5461 5460 5459 5459 5458 5457 5456 5456 5456 5455 5455 5455 5455 5454 5454
5480 5478 5477 5475 5474 5473 5472 5471 5470 5469 5467 5466 5465 5464 5463 5462 5461 5461 5460 5459 5459 5458 5458 5458 5457 5457 5456 5455 5455 5454 5453 5452 5451 5451 5450 5450 5450 5450 5450 5450 5450 5449 5449
5474 5472 5471 5470 5468 5467 5466 5465 5464 5463 5463 5461 5460 5459 5458 5457 5456 5455 5454 5454 5453 5453 5453 5452 5452 5451 5451 5450 5450 5449 5448 5447 5446 5446 5446 5445 5445 5445 5445 5445 5445 5445 5444
5468 5467 5466 5464 5463 5462 5461 5460 5459 5458 5457 5456 5455 5454 5452 5451 5450 5449 5448 5448 5448 5448 5447 5447 5447 5447 5446 5446 5445 5444 5444 5443 5442 5442 5442 5442 5442 5442 5442 5442 5441 5441 5440
5462 5461 5460 5459 5458 5457 5456 5455 5454 5453 5452 5451 5449 5448 5447 5446 5445 5444 5443 5443 5443 5443 5442 5442 5442 5442 5442 5441 5441 5440 5440 5439 5439 5439 5438 5438 5438 5438 5439 5438 5438 5438 5437
5457 5456 5455 5454 5453 5452 5451 5450 5449 5448 5447 5446 5444 5443 5442 5441 5440 5440 5439 5439 5438 5438 5438 5438 5438 5438 5437 5437 5437 5436 5436 5436 5435 5435 5435 5435 5435 5436 5436 5435 5435 5435 5434
5452 5451 5450 5449 5448 5447 5447 5446 5445 5443 5442 5441 5440 5439 5438 5437 5436 5435 5435 5434 5434 5434 5434 5434 5434 5434 5433 5433 5433 5433 5432 5432 5432 5432 5432 5432 5432 5433 5433 5432 5432 5432 5432
5447 5446 5445 5444 5443 5443 5442 5441 5440 5439 5438 5437 5436 5435 5434 5433 5432 5431 5431 5430 5430 5430 5430 5430 5430 5430 5429 5429 5429 5429 5428 5428 5428 5428 5429 5429 5429 5429 5429 5429 5429 5429 5429
5443 5441 5440 5439 5439 5438 5437 5436 5435 5434 5434 5433 5432 5431 5430 5429 5429 5428 5427 5427 5426 5426 5426 5426 5426 5426 5426 5425 5425 5425 5425 5425 5425 5425 5425 5426 5426 5426 5426 5426 5426 5426 5426
5438 5437 5436 5435 5434 5434 5433 5432 5431 5430 5430 5429 5428 5428 5427 5426 5425 5425 5424 5423 5423 5423 5423 5422 5422 5422 5422 5422 5421 5421 5421 5421 5421 5422 5422 5422 5422 5423 5423 5423 5423 5423 5422
5434 5433 5432 5431 5430 5429 5429 5428 5427 5426 5426 5425 5424 5424 5423 5423 5422 5421 5421 5420 5420 5419 5419 5419 5419 5419 5418 5418 5418 5418 5418 5418 5418 5418 5418 5419 5419 5419 5419 5419 5419 5419 5419